Starlink 35863

operational
NORAD ID: 67170 Int'l Des: 2025-303 Owner: SPXS Country: US Constellation: starlink
LEOCIRCULAR

Über Starlink 35863

Beschreibung wird geladen...

Live-Position

3D-Globus wird geladen...

Nächste Überflüge

Höhenverlauf

Altitude vs Time

uPlot chart will show altitude changes over time

Zweizeiliger Elementsatz

1 67170C 25303H 25352.76576389 .00689290 00000+0 10179-2 0 3528
2 67170 43.0046 61.7954 0007384 287.5325 250.9682 16.03228164 12
Epoch: 18. Dez. 2025 • Age: 54 hours

Aktueller Status

Höhe 263.3 km
Geschwindigkeit 7.75 km/s
Subsatellitenpunkt -16.72°S, 66.69°E
Startdatum 17. Dez. 2025
Alter 2 days
Typ internet

Technische Details

Klassifizierung Payload
Masse 575.00 kg
Trockenmasse 530.00 kg
Gesamtmasse 575.00 kg
Länge 0.30 m
Durchmesser 4.10 m
Spannweite 29.00 m
Form Box + pan
Hersteller SPXS
Bus-Typ Starlink V2MO
Phasenstatus In Orbit
Besitzer/Staat SPXS/US

Große Konstellationen

Loading constellations...